Regional Weather Roundup
Issued by NWS

Home | Current Version | Previous Version | Text Only | Print | Product List | Glossary On
Versions: 1 2 3 4 5 6 7 8 9 10 11 12 13 14 15 16 17 18 19 20 21 22 23 24 25 26 27 28 29 30 31 32 33 34 35 36 37 38 39 40 41 42 43 44 45 46 47 48 49 50
000
ASUS44 KLIX 270613
RWRLA
LOUISIANA WEATHER ROUNDUP
NATIONAL WEATHER SERVICE NEW ORLEANS LA
100 AM CDT THU APR 27 2017

NOTE: "FAIR" INDICATES FEW OR NO CLOUDS BELOW 12,000 FEET WITH NO
      SIGNIFICANT WEATHER AND/OR OBSTRUCTIONS TO VISIBILITY.
      SKY/WX - SKY CONDITION AND SIGNIFICANT WEATHER.
      TMP - AIR TEMPERATURE.    DP   - DEWPOINT TEMPERATURE.
      RH  - RELATIVE HUMIDITY.  PRES - PRESSURE.
      HX  - HEAT INDEX.         WCI  - WIND CHILL INDEX.

*  THESE STATIONS ARE NOT NWS OR FAA STATIONS AND ARE NOT UNDER
   NWS QUALITY CONTROL.

LAZ040-048-061>063-065-066-069-270700-
SOUTHEAST LOUISIANA

CITY           SKY/WX    TMP DP  RH WIND       PRES   REMARKS
N.O. INTL ARPT LGT RAIN  76  73  91 S8        29.70R
6HR MIN TEMP:  76; 6HR MAX TEMP:  78; 6HR PCP: TRACE;

N.O. LAKEFRONT CLOUDY    78  73  84 S17       29.70R
6HR MIN TEMP:  78; 6HR MAX TEMP:  79;

N.O. DOWNTOWN*   N/A     78  73  84 S8G16       N/A
6HR MIN TEMP:  78; 6HR MAX TEMP:  79;

RESERVE*       NOT AVBL
SLIDELL        CLOUDY    77  73  87 S9        29.69R
6HR MIN TEMP:  76; 6HR MAX TEMP:  77; 6HR PCP: TRACE;

BATON ROUGE    CLOUDY    67  58  72 NW5       29.71R
6HR MIN TEMP:  67; 6HR MAX TEMP:  81; 6HR PCP:  0.03;

BOOTHVILLE     CLOUDY    75  74  96 S10       29.73S
6HR MIN TEMP:  75; 6HR MAX TEMP:  77;

BELLE CHASSE   CLOUDY   N/A N/A N/A S12       29.70R
BOGALUSA*      NOT AVBL
GALLIANO*      CLOUDY    76  72  86 S10       29.71R
6HR MIN TEMP:  76; 6HR MAX TEMP:  78;

NEW ROADS*     CLOUDY    66  60  81 NW10      29.73R
6HR MIN TEMP:  65; 6HR MAX TEMP:  80; 6HR PCP:  0.02;

GONZALES*      LGT RAIN  74  56  54 NW8G15    29.71R
6HR MIN TEMP:  74; 6HR MAX TEMP:  79;

HAMMOND*       CLOUDY    77  70  78 SW7       29.68S
HOUMA*         LGT RAIN  76  73  90 S8        29.70S
6HR MIN TEMP:  76; 6HR MAX TEMP:  78;

PORT FOURCHON* PTCLDY    77  73  88 S12       29.71S FOG

$$

LAZ041-044-053-054-270700-
SOUTHWEST LOUISIANA

CITY           SKY/WX    TMP DP  RH WIND       PRES   REMARKS
LAKE CHARLES   PTCLDY    61  55  81 N14G20    29.76R
6HR MIN TEMP:  61; 6HR MAX TEMP:  78; 6HR PCP:  0.01;

LAFAYETTE      CLOUDY    71  63  75 NW5       29.73R
6HR MIN TEMP:  70; 6HR MAX TEMP:  82; 6HR PCP:  0.01;

PATTERSON      CLOUDY    75  63  66 NW14      29.72R
6HR MIN TEMP:  75; 6HR MAX TEMP:  78; 6HR PCP: TRACE;

SALT POINT       N/A     73  59  61 NW9G17      N/A
6HR MIN TEMP:  72; 6HR MAX TEMP:  77;

NEW IBERIA     CLOUDY    68  60  75 NW3       29.73R
6HR MIN TEMP:  67; 6HR MAX TEMP:  77; 6HR PCP: TRACE;

CHENAULT AIRPK MOCLDY    59  55  87 NW13      29.77R
6HR MIN TEMP:  59; 6HR MAX TEMP:  78;


$$

LAZ027-028-270700-
CENTRAL LOUISIANA

CITY           SKY/WX    TMP DP  RH WIND       PRES   REMARKS
FORT POLK      CLOUDY    58  54  89 NW13G20   29.76R
6HR MIN TEMP:  57; 6HR MAX TEMP:  66; 6HR PCP:  0.20;

ALEXANDRIA INT CLOUDY    58  54  86 NW13G22   29.74R
6HR MIN TEMP:  58; 6HR MAX TEMP:  75; 6HR PCP:  0.07;

ALEXANDRIA     CLOUDY    59  55  87 NW9       29.75R
6HR MIN TEMP:  59; 6HR MAX TEMP:  77; 6HR PCP:  0.03;


$$

LAZ001-002-270700-
NORTHWEST LOUISIANA

CITY           SKY/WX    TMP DP  RH WIND       PRES   REMARKS
SHREVEPORT     PTCLDY    54  49  83 NW12      29.78S
6HR MIN TEMP:  54; 6HR MAX TEMP:  60;

BARKSDALE AFB  PTCLDY    55  47  77 NW13      29.77F
6HR MIN TEMP:  55; 6HR MAX TEMP:  59;

DTN SHREVEPORT CLEAR     56  47  71 NW9       29.79S
6HR MIN TEMP:  56; 6HR MAX TEMP:  61;


$$

LAZ014-016-270700-
NORTHEAST LOUISIANA

CITY           SKY/WX    TMP DP  RH WIND       PRES   REMARKS
MONROE         CLOUDY    57  52  83 NW17      29.75R
6HR MIN TEMP:  57; 6HR MAX TEMP:  67; 6HR PCP:  0.24;

TALLULAH       CLOUDY    62  59  90 W10G21    29.70R
6HR MIN TEMP:  62; 6HR MAX TEMP:  79; 6HR PCP:  1.19;


$$




USA.gov is the U.S. government's official web portal to all federal, state and local government web resources and services.